[[{"header":{"parameterUnit":"m.s-1","parameterCategory":1,"la1":30.2991,"la2":30.254,"lo1":-89.0895,"lo2":-89.0444,"dy":0.0017,"dx":0.0017,"nx":28,"ny":28,"refTime":"2024-08-30T03:00:00:Z","depth":0,"parameterNumber":2,"parameterNumberName":"U-component_of_WINDS"},"data":[0,0,0,0,0,0,0,0,0,0,0,0,0,0,0,0,0,0,0,0,0,0,0,0,0,0,0,0,0,0,0,0,0,0,0,0,0,0,0,0,0,0,0,0,0,0,0,0,0,0,0,0,0,0,0,0,0,0,-2.5089,-2.5089,0,-2.5074,-2.5073,-2.5073,-2.5006,-2.5004,-2.5003,-2.5001,-2.4986,-2.4987,-2.4988,0,0,0,0,0,0,0,0,0,0,0,0,0,-2.5061,-2.5062,-2.5089,-2.5089,-2.5089,-2.5074,-2.5073,-2.5073,-2.5006,-2.5004,-2.5002,-2.5,-2.4985,-2.4987,-2.4988,0,0,0,0,0,0,0,0,0,0,0,0,0,-2.5062,-2.5062,-2.5089,-2.5054,-2.505,-2.5074,-2.5073,-2.5073,-2.5006,-2.5004,-2.5002,-2.5,-2.4985,-2.4987,-2.4988,-2.5045,0,0,-2.4993,-2.4994,0,0,0,0,0,0,0,0,-2.5062,-2.5063,-2.5059,-2.5056,-2.5052,-2.5039,-2.5058,-2.5064,-2.5007,-2.5023,-2.5001,-2.4998,-2.5006,-2.5005,-2.5007,-2.5044,-2.5044,-2.4993,-2.4994,-2.4995,-2.4995,0,0,0,0,0,0,0,-2.5062,-2.5064,-2.5083,-2.5059,-2.5055,-2.5038,-2.5036,-2.5059,-2.5028,-2.5022,-2.5017,-2.5016,-2.5003,-2.5006,-2.5007,-2.5043,-2.4993,-2.4994,-2.4995,-2.4996,-2.5124,-2.5127,0,0,0,0,0,0,-2.5067,-2.5064,-2.5084,-2.5083,-2.5052,-2.5041,-2.5038,-2.5046,-2.5027,-2.5022,-2.5018,-2.5013,-2.5005,-2.5005,-2.5006,-2.507,-2.4995,-2.4996,-2.4997,-2.5122,-2.5125,-2.5128,0,0,0,0,0,0,-2.5067,-2.507,-2.5084,-2.5072,-2.5073,-2.5044,-2.5053,-2.5047,-2.5049,-2.5024,-2.5019,-2.5026,-2.5003,-2.5004,-2.5035,-2.5068,-2.4997,-2.4998,-2.5119,-2.5123,-2.5126,-2.5199,0,0,0,0,0,0,-2.5066,-2.507,-2.5091,-2.5073,-2.5073,-2.5114,-2.5055,-2.5048,-2.5052,-2.5045,-2.5031,-2.5026,-2.5001,-2.5033,-2.5037,-2.5069,-2.5,-2.5116,-2.5121,-2.5125,-2.5194,-2.5205,-2.5214,0,0,0,0,0,-2.5066,-2.5113,-2.5093,-2.5096,-2.51,-2.5116,-2.5116,-2.5086,-2.5055,-2.5076,-2.506,-2.5027,-2.5065,-2.5037,-2.5041,-2.5074,-2.5114,-2.5119,-2.5125,-2.5189,-2.5203,-2.5214,0,0,0,0,0,0,-2.5137,-2.511,-2.5087,-2.513,-2.5126,-2.5105,-2.513,-2.5102,-2.5107,-2.51,-2.5063,-2.506,-2.5097,-2.5089,-2.5059,-2.5127,-2.5083,-2.509,-2.5131,-2.5144,-2.5154,-2.5155,-2.5001,0,0,0,0,0,-2.5157,-2.5173,-2.5149,-2.5189,-2.5188,-2.516,-2.5166,-2.5143,-2.5137,-2.5135,-2.5121,-2.5117,-2.5127,-2.5135,-2.5144,-2.5193,-2.5188,-2.5217,-2.5228,-2.5236,-2.5242,-2.5265,-2.5278,-2.5146,-2.5146,-2.5146,0,0,-2.52,-2.5187,-2.52,-2.5203,-2.5197,-2.5213,-2.5159,-2.5179,-2.5191,-2.5138,-2.5167,-2.5157,-2.5149,-2.5189,-2.5206,-2.5184,-2.5277,-2.5243,-2.525,-2.5251,-2.5272,-2.5285,-2.5296,-2.515,-2.5149,-2.5148,0,0,-2.5286,-2.5279,-2.531,-2.5305,-2.5296,-2.5277,-2.5285,-2.5268,-2.5259,-2.5287,-2.5247,-2.5261,-2.5281,-2.5277,-2.5278,-2.5361,-2.533,-2.5365,-2.5419,-2.5443,-2.5453,-2.5462,-2.549,-2.5501,-2.5371,-2.5372,-2.5372,0,-2.534,-2.5363,-2.533,-2.5352,-2.5355,-2.5307,-2.5339,-2.5336,-2.5331,-2.5333,-2.5308,-2.5331,-2.5323,-2.536,-2.5381,-2.5383,-2.539,-2.5366,-2.5454,-2.5463,-2.5471,-2.5497,-2.5508,-2.5376,-2.5375,-2.5375,-2.5374,0,-2.5429,-2.5446,-2.5473,-2.5468,-2.5474,-2.5501,-2.5471,-2.5481,-2.5457,-2.5441,-2.547,-2.5458,-2.5463,-2.5471,-2.5448,-2.5505,-2.5491,-2.5461,-2.5416,-2.5488,-2.5512,-2.5522,-2.5382,-2.538,-2.5379,-2.5378,0,0,-2.5559,-2.5535,-2.5546,-2.5542,-2.5529,-2.5541,-2.5566,-2.557,-2.5578,-2.5576,-2.5595,-2.5613,-2.5584,-2.5585,-2.5562,-2.5583,-2.5648,-2.555,-2.5549,-2.5567,-2.5708,-2.5729,-2.5742,-2.5628,-2.563,-2.5631,-2.5708,0,-2.564,-2.568,-2.565,-2.5695,-2.571,-2.5665,-2.5686,-2.568,-2.5666,-2.5676,-2.566,-2.5672,-2.5634,-2.5634,-2.5653,-2.5636,-2.5675,-2.563,-2.5644,-2.5645,-2.5646,-2.5755,-2.5778,-2.5851,-2.5717,-2.5719,-2.572,0,-2.5739,-2.5741,-2.5787,-2.5769,-2.5774,-2.5794,-2.5794,-2.5805,-2.5797,-2.5785,-2.5786,-2.5757,-2.5779,-2.5736,-2.5766,-2.5736,-2.574,-2.5733,-2.5735,-2.5734,-2.5686,-2.5755,-2.5873,-2.5884,-2.5735,-2.5734,-2.5733,0,-2.5827,-2.5841,-2.587,-2.5869,-2.5849,-2.5864,-2.5857,-2.5846,-2.585,-2.5851,-2.5853,-2.5857,-2.5859,-2.5863,-2.5836,-2.5807,-2.5869,-2.5824,-2.5858,-2.5859,-2.5872,-2.5872,-2.5991,-2.5878,-2.5878,-2.5878,-2.5877,0,-2.592,-2.5949,-2.5909,-2.5927,-2.5958,-2.5924,-2.5957,-2.5945,-2.5936,-2.595,-2.5913,-2.5927,-2.5891,-2.5901,-2.5881,-2.5908,-2.5909,-2.5899,-2.5893,-2.5902,-2.5903,-2.5903,-2.5897,-2.588,-2.588,-2.5879,-2.5879,0,-2.6023,-2.5997,-2.6026,-2.6005,-2.6,-2.6024,-2.6006,-2.6021,-2.6004,-2.6023,-2.6025,-2.5998,-2.6008,-2.5982,-2.5989,-2.5974,-2.6013,-2.5999,-2.6015,-2.6011,-2.6046,-2.6043,-2.6169,-2.6183,-2.6062,-2.6064,-2.6065,0,-2.6083,-2.6104,-2.6085,-2.6092,-2.6086,-2.6098,-2.6101,-2.6069,-2.6074,-2.6066,-2.6082,-2.6089,-2.6093,-2.6111,-2.6092,-2.6097,-2.6082,-2.6126,-2.6083,-2.609,-2.6081,-2.608,-2.6081,-2.6135,-2.6136,-2.6138,-2.6139,0,-2.6192,-2.6177,-2.6184,-2.6185,-2.619,-2.619,-2.6188,-2.6195,-2.616,-2.6168,-2.6177,-2.618,-2.6187,-2.6194,-2.6194,-2.6186,-2.6157,-2.6153,-2.616,-2.6169,-2.6177,-2.6171,-2.6038,-2.615,-2.6148,-2.6148,-2.6147,-2.6147,-2.6274,-2.629,-2.6279,-2.6287,-2.6281,-2.6279,-2.6292,-2.6276,-2.6283,-2.6285,-2.6266,-2.6279,-2.627,-2.6267,-2.6262,-2.6272,-2.6252,-2.6264,-2.6267,-2.627,-2.6275,-2.6176,-2.6272,-2.6272,-2.6272,-2.6271,-2.6271,0,-2.6379,-2.6369,-2.6377,-2.6374,-2.638,-2.6351,-2.6346,-2.6353,-2.6365,-2.6359,-2.6363,-2.6374,-2.638,-2.6361,-2.6365,-2.6376,-2.6363,-2.6378,-2.6377,-2.6375,-2.6294,-2.6286,-2.6389,-2.6389,-2.6389,-2.6389,-2.6389,-2.6389,-2.6435,-2.646,-2.6445,-2.6467,-2.6457,-2.6469,-2.6469,-2.6467,-2.6461,-2.6474,-2.6479,-2.6467,-2.6455,-2.6457,-2.6462,-2.6456,-2.6459,-2.6479,-2.6468,-2.6392,-2.6381,-2.637,-2.6362,-2.648,-2.648,-2.6548,-2.6549,-2.655]},{"header":{"parameterUnit":"m.s-1","parameterCategory":1,"la1":30.2991,"la2":30.254,"lo1":-89.0895,"lo2":-89.0444,"dy":0.0017,"dx":0.0017,"nx":28,"ny":28,"refTime":"2024-08-30T03:00:00:Z","depth":0,"parameterNumber":3,"parameterNumberName":"V-component_of_WINDS"},"data":[0,0,0,0,0,0,0,0,0,0,0,0,0,0,0,0,0,0,0,0,0,0,0,0,0,0,0,0,0,0,0,0,0,0,0,0,0,0,0,0,0,0,0,0,0,0,0,0,0,0,0,0,0,0,0,0,0,0,2.8293,2.8294,0,2.842,2.8422,2.8423,2.84,2.8398,2.8395,2.8393,2.8522,2.8527,2.8533,0,0,0,0,0,0,0,0,0,0,0,0,0,2.8028,2.8033,2.8293,2.8295,2.8296,2.842,2.8422,2.8424,2.84,2.8398,2.8395,2.8392,2.852,2.8527,2.8533,0,0,0,0,0,0,0,0,0,0,0,0,0,2.8148,2.8035,2.8293,2.83,2.8301,2.842,2.8422,2.8424,2.8401,2.8397,2.8394,2.8391,2.8518,2.8526,2.8534,2.8653,0,0,2.856,2.8563,0,0,0,0,0,0,0,0,2.8141,2.8158,2.8297,2.8299,2.8302,2.8391,2.8376,2.8501,2.8402,2.8363,2.8393,2.8389,2.8481,2.8492,2.8523,2.8659,2.8665,2.856,2.8565,2.8569,2.8571,0,0,0,0,0,0,0,2.8133,2.8152,2.8343,2.8299,2.8302,2.8296,2.8309,2.8399,2.8439,2.8366,2.8365,2.838,2.8482,2.8515,2.8526,2.8667,2.856,2.8567,2.8573,2.8576,2.8907,2.891,0,0,0,0,0,0,2.8123,2.8145,2.8339,2.8347,2.8211,2.8303,2.8318,2.8366,2.8438,2.8446,2.8383,2.8379,2.8503,2.8517,2.8531,2.8675,2.8569,2.8577,2.8581,2.8903,2.8907,2.8911,0,0,0,0,0,0,2.8117,2.814,2.8334,2.8246,2.827,2.8311,2.8365,2.837,2.8404,2.8451,2.8458,2.841,2.8501,2.8519,2.8623,2.8679,2.858,2.8588,2.8898,2.8904,2.8909,2.8964,0,0,0,0,0,0,2.811,2.8138,2.8184,2.8247,2.8275,2.8425,2.8368,2.8375,2.8418,2.8414,2.8479,2.8486,2.8499,2.8611,2.8631,2.8689,2.8594,2.8893,2.8901,2.8908,2.8958,2.8971,2.8983,0,0,0,0,0,2.81,2.8195,2.8187,2.821,2.8334,2.8428,2.8444,2.8458,2.8423,2.8469,2.85,2.8484,2.867,2.8622,2.8645,2.8705,2.889,2.8899,2.8907,2.8952,2.8969,2.8982,0,0,0,0,0,0,2.8137,2.8203,2.8195,2.8313,2.8365,2.8424,2.8483,2.8475,2.8538,2.8532,2.8546,2.8561,2.8666,2.8696,2.8642,2.8824,2.8775,2.8788,2.8801,2.8817,2.8829,2.882,2.8601,0,0,0,0,0,2.8159,2.8231,2.8284,2.8383,2.8409,2.8442,2.8484,2.849,2.8545,2.8567,2.8605,2.8658,2.8728,2.8774,2.8841,2.8962,2.8975,2.9015,2.9027,2.9037,2.9049,2.9115,2.9133,2.894,2.894,2.8939,0,0,2.8204,2.8249,2.8294,2.8391,2.8433,2.8506,2.8461,2.8541,2.8596,2.8579,2.868,2.8709,2.877,2.8882,2.8934,2.891,2.9105,2.9048,2.9056,2.9062,2.9125,2.9144,2.916,2.8945,2.8944,2.8943,0,0,2.8325,2.8367,2.8453,2.8496,2.8559,2.858,2.8601,2.8662,2.8681,2.8782,2.8771,2.8836,2.8957,2.9001,2.9038,2.9176,2.9164,2.9197,2.9263,2.9327,2.9342,2.9356,2.9405,2.9422,2.9209,2.9209,2.9209,0,2.8374,2.8485,2.8499,2.858,2.8623,2.8612,2.8699,2.874,2.8822,2.8851,2.8824,2.8975,2.9015,2.9138,2.9172,2.9203,2.9226,2.919,2.9339,2.9353,2.9365,2.9412,2.9431,2.9212,2.9212,2.9212,2.9211,0,2.8542,2.8619,2.8682,2.8762,2.8812,2.8896,2.8921,2.897,2.8972,2.8996,2.9099,2.9146,2.9223,2.9253,2.9255,2.9376,2.9359,2.9335,2.9286,2.9387,2.9432,2.945,2.9218,2.9216,2.9215,2.9214,0,0,2.869,2.8776,2.8799,2.8835,2.8904,2.8964,2.9047,2.9123,2.9164,2.9221,2.9291,2.9394,2.9372,2.9415,2.9422,2.9478,2.9584,2.9447,2.9449,2.9471,2.9721,2.9739,2.9759,2.9577,2.958,2.9583,2.9716,0,2.8818,2.8966,2.898,2.9112,2.9183,2.9173,2.9246,2.9296,2.932,2.9384,2.941,2.9483,2.9449,2.9474,2.953,2.956,2.9635,2.955,2.9642,2.9645,2.9627,2.9782,2.9802,2.9925,2.9733,2.9736,2.9738,0,2.8987,2.9049,2.9188,2.9247,2.9278,2.9343,2.9413,2.9474,2.9531,2.9544,2.9593,2.9592,2.9677,2.9625,2.9742,2.9685,2.9723,2.9743,2.9748,2.9758,2.9698,2.9796,2.9964,2.9983,2.9766,2.9763,2.9761,0,2.9081,2.92,2.9298,2.933,2.9401,2.9447,2.9478,2.9531,2.9576,2.9637,2.9666,2.9736,2.9775,2.9829,2.9847,2.9807,2.9964,2.9913,2.9978,2.9977,3.0012,3.0009,3.0189,3.0036,3.0035,3.0035,3.0035,0,2.9223,2.9308,2.9342,2.9403,2.9498,2.9513,2.9607,2.9637,2.9684,2.975,2.9745,2.9807,2.9827,2.9893,2.9907,3.0003,3.002,3.0033,3.0036,3.0034,3.0032,3.0059,3.0051,3.004,3.0039,3.0038,3.0037,0,2.9344,2.937,2.9477,2.9536,2.9553,2.962,2.967,2.9729,2.9752,2.9835,2.9856,2.9892,2.9969,2.9992,3.0085,3.0095,3.0206,3.0201,3.0188,3.0188,3.0252,3.0246,3.0455,3.0483,3.0311,3.0313,3.0314,0,2.9433,2.9499,2.9565,2.9609,2.9642,2.9713,2.9759,2.9776,2.9823,2.9892,2.9942,3.0018,3.008,3.0203,3.0237,3.0308,3.0305,3.0373,3.0315,3.0311,3.0306,3.0302,3.0309,3.0384,3.0386,3.0387,3.0388,0,2.9588,2.9597,2.9663,2.9734,2.9788,2.9845,2.9899,2.9935,2.996,3.0013,3.0092,3.014,3.0234,3.031,3.0381,3.0413,3.0406,3.0406,3.0425,3.0424,3.0413,3.042,3.0218,3.0402,3.04,3.0399,3.0399,3.0398,2.9696,2.9754,2.981,2.9883,2.9926,2.9976,3.0034,3.0065,3.013,3.0209,3.0215,3.03,3.0354,3.0449,3.0485,3.0552,3.0532,3.0559,3.0566,3.0573,3.0578,3.0402,3.0565,3.0564,3.0564,3.0564,3.0563,0,2.9851,2.9886,2.9954,3.003,3.0087,3.0075,3.0134,3.0183,3.0258,3.031,3.037,3.0461,3.0534,3.0574,3.0647,3.0692,3.069,3.0711,3.0708,3.0715,3.0591,3.0568,3.0711,3.0711,3.0711,3.0711,3.0711,3.0711,2.9939,3.0036,3.0052,3.0171,3.0205,3.0288,3.0323,3.037,3.0411,3.0512,3.0573,3.0598,3.0645,3.0722,3.0788,3.0798,3.0825,3.0848,3.0855,3.0739,3.0724,3.071,3.0688,3.0853,3.0854,3.0974,3.0975,3.0976]}]]